TimePDT,TemperatureF,Dew PointF,Humidity,Sea Level PressureIn,VisibilityMPH,Wind Direction,Wind SpeedMPH,Gust SpeedMPH,PrecipitationIn,Events,Conditions,WindDirDegrees,DateUTC
12:56 AM,57.9,21.0,24,30.01,10.0,Variable,3.5,-,N/A,,Clear,0,2014-03-17 07:56:00
1:56 AM,57.0,21.0,25,29.97,10.0,South,6.9,-,N/A,,Clear,180,2014-03-17 08:56:00
2:56 AM,57.9,19.9,23,29.94,10.0,WSW,4.6,-,N/A,,Clear,240,2014-03-17 09:56:00
3:56 AM,70.0,14.0,12,29.88,10.0,SSW,11.5,23.0,N/A,,Clear,210,2014-03-17 10:56:00
4:56 AM,64.9,19.9,18,29.85,10.0,SSW,18.4,21.9,N/A,,Mostly Cloudy,210,2014-03-17 11:56:00
5:56 AM,66.9,19.9,17,29.85,10.0,SE,11.5,-,N/A,,Mostly Cloudy,130,2014-03-17 12:56:00
6:56 AM,66.0,23.0,20,29.84,10.0,SSE,19.6,26.5,N/A,,Mostly Cloudy,150,2014-03-17 13:56:00
7:56 AM,68.0,24.1,19,29.84,10.0,SSW,5.8,-,N/A,,Mostly Cloudy,210,2014-03-17 14:56:00
8:56 AM,69.1,25.0,19,29.84,10.0,South,12.7,-,N/A,,Mostly Cloudy,190,2014-03-17 15:56:00
9:56 AM,73.0,19.9,14,29.84,10.0,SW,13.8,19.6,N/A,,Mostly Cloudy,220,2014-03-17 16:56:00
10:56 AM,75.9,17.1,11,29.78,10.0,SW,15.0,-,N/A,,Mostly Cloudy,220,2014-03-17 17:56:00
11:14 AM,78.1,14.0,9,29.76,10.0,SW,28.8,42.6,N/A,,Mostly Cloudy,220,2014-03-17 18:14:00
11:56 AM,79.0,15.1,9,29.74,10.0,SW,21.9,33.4,N/A,,Mostly Cloudy,230,2014-03-17 18:56:00
12:56 PM,79.0,17.1,10,29.73,10.0,SW,28.8,39.1,N/A,,Scattered Clouds,220,2014-03-17 19:56:00
1:56 PM,78.1,19.9,11,29.69,10.0,WSW,29.9,36.8,N/A,,Scattered Clouds,240,2014-03-17 20:56:00
2:56 PM,77.0,21.0,12,29.66,10.0,WSW,32.2,42.6,N/A,,Mostly Cloudy,240,2014-03-17 21:56:00
3:56 PM,77.0,21.0,12,29.62,10.0,WSW,23.0,34.5,N/A,,Mostly Cloudy,240,2014-03-17 22:56:00
4:56 PM,77.0,17.1,10,29.60,10.0,West,28.8,36.8,N/A,,Mostly Cloudy,260,2014-03-17 23:56:00
5:56 PM,77.0,18.0,11,29.60,10.0,West,26.5,34.5,N/A,,Mostly Cloudy,270,2014-03-18 00:56:00
6:56 PM,72.0,19.9,14,29.63,10.0,West,25.3,36.8,N/A,,Scattered Clouds,270,2014-03-18 01:56:00
7:56 PM,70.0,21.0,16,29.65,10.0,West,16.1,-,N/A,,Scattered Clouds,280,2014-03-18 02:56:00
8:56 PM,66.9,19.9,17,29.69,10.0,SSE,8.1,-,N/A,,Clear,150,2014-03-18 03:56:00
9:56 PM,68.0,18.0,15,29.71,10.0,NNW,16.1,-,N/A,,Clear,330,2014-03-18 04:56:00
10:56 PM,64.9,21.0,19,29.75,10.0,NW,15.0,21.9,N/A,,Clear,320,2014-03-18 05:56:00
11:56 PM,63.0,19.9,19,29.77,10.0,NW,6.9,-,N/A,,Clear,310,2014-03-18 06:56:00